Location: Boiro
(42.6475°N, 8.8834°W)
Time: 01:35:37
(UTC+01:00)

Tiros 1 despin weight - Pass Details

Date: 09 December 2021
Orbit: 592 x 641 km, 48.2° (Epoch: 23 January)

Event Time Altitude Azimuth Distance (km) Brightness Sun altitude
Rises 12:35:29 0° 232° (SW) 2,855 ? 23.4°
Reaches altitude 10° 12:37:48 10° 230° (SW) 1,946 ? 23.5°
Maximum altitude 12:42:13 64° 149° (SSE) 663 ? 23.6°
Drops below altitude 10° 12:46:36 10° 68° (ENE) 1,930 ? 23.8°
Sets 12:48:53 0° 65° (ENE) 2,830 ? 23.9°
